Home   Weather   Norwich   Past weeks

Flag for United Kingdom Past Weather in Norwich, England, United Kingdom — Yesterday and Last 2 Weeks

Now
55 °F

Cool.


Feels Like: 54 °F
Forecast: 54 / 73 °F
Wind: 6 mph from Southwest

Location: Norwich Weather Centre

Current Time: Aug 31, 2016 at 5:30:22 AM

Latest Report: Aug 31, 2016 at 4:50 AM


Visibility: N/A

Pressure: 30.12 "Hg

Humidity: 94%

Dew Point: 54 °F

Location of NorwichLocation

Past Weather in Norwich — Graph

°F

Norwich Temperature Yesterday

Maximum temperature yesterday: 79 °F (at 2:50 PM)
Minimum temperature yesterday: 52 °F (at 1:50 AM)
Average temperature yesterday: 65 °F

High & Low Weather Summary for the Past Weeks

 TemperatureHumidityPressure
High82 °F (Aug 23, 1:50 PM)100% (Aug 16, 4:20 AM)30.27 "Hg (Aug 16, 4:20 AM)
Low46 °F (Aug 16, 4:50 AM)32% (Aug 26, 3:20 PM)29.65 "Hg (Aug 19, 5:50 PM)
Average65 °F81%30.00 "Hg
* Reported Aug 16 4:20 AM — Aug 31 4:20 AM, Norwich, Weather by CustomWeather, © 2016

Note: Actual official high and low records may vary slightly from our data, if they occured in-between our weather recording intervals... More about our weather records

Advertising

Norwich Weather History for the Previous 24 Hours

Scroll right to see more
 ConditionsComfort  
Time TempWeatherWind HumidityBarometerVisibility
4:20 AM
Wed, Aug 31
55 °FCool.7 mph94%30.12 "HgN/A
3:50 AM57 °FCool.7 mph94%30.12 "HgN/A
3:20 AM57 °FCool.7 mph94%30.12 "HgN/A
2:50 AM59 °FCool.7 mph88%30.12 "HgN/A
2:20 AM59 °FCool.7 mph88%30.12 "HgN/A
1:50 AM59 °FCool.7 mph88%30.15 "HgN/A
1:20 AM59 °FCool.8 mph94%30.15 "HgN/A
12:50 AM61 °FCool.8 mph88%30.15 "HgN/A
12:20 AM61 °FCool.8 mph88%30.15 "HgN/A
11:50 PM
Tue, Aug 30
61 °FCool.8 mph88%30.18 "HgN/A
11:20 PM63 °FMild.9 mph77%30.18 "HgN/A
10:50 PM63 °FClear.9 mph77%30.18 "Hg10 mi
10:20 PM63 °FClear.10 mph77%30.18 "Hg10 mi
9:50 PM64 °FClear.9 mph73%30.18 "Hg10 mi
9:20 PM64 °FClear.10 mph73%30.18 "Hg10 mi
8:50 PM66 °FPassing clouds.12 mph64%30.18 "HgN/A
8:20 PM66 °FSunny.12 mph64%30.18 "Hg10 mi
7:50 PM68 °FSunny.10 mph60%30.18 "Hg10 mi
7:20 PM70 °FSunny.13 mph57%30.18 "Hg10 mi
6:50 PM72 °FSunny.14 mph57%30.18 "Hg10 mi
6:20 PM75 °FPassing clouds.12 mph50%30.18 "HgN/A
5:50 PM77 °FPassing clouds.6 mph42%30.18 "HgN/A
5:20 PM79 °FPassing clouds.5 mph39%30.18 "HgN/A
4:50 PM79 °FPassing clouds.7 mph39%30.18 "HgN/A
4:20 PM77 °FPassing clouds.9 mph42%30.18 "HgN/A
3:50 PM79 °FPassing clouds.7 mph42%30.21 "HgN/A
3:20 PM79 °FPassing clouds.8 mph42%30.21 "HgN/A
2:50 PM79 °FPassing clouds.7 mph42%30.21 "HgN/A
2:20 PM77 °FPassing clouds.9 mph44%30.24 "HgN/A
1:50 PM77 °FPassing clouds.9 mph44%30.24 "HgN/A
1:20 PM77 °FPassing clouds.9 mph44%30.24 "HgN/A
12:50 PM75 °FPassing clouds.12 mph47%30.24 "HgN/A
12:20 PM75 °FPassing clouds.9 mph47%30.24 "HgN/A
11:50 AM73 °FPassing clouds.10 mph50%30.27 "HgN/A
11:20 AM73 °FPassing clouds.9 mph53%30.27 "HgN/A
10:50 AM73 °FPassing clouds.12 mph53%30.27 "HgN/A
10:20 AM72 °FPassing clouds.8 mph53%30.27 "HgN/A
9:50 AM70 °FPassing clouds.8 mph57%30.27 "HgN/A
9:20 AM68 °FPassing clouds.7 mph60%30.27 "HgN/A
8:50 AM66 °FSunny.6 mph64%30.27 "Hg10 mi
8:20 AM63 °FSunny.5 mph77%30.27 "Hg10 mi
7:50 AM59 °FSunny.5 mph82%30.27 "Hg10 mi
7:20 AM55 °FSunny.3 mph94%30.27 "Hg10 mi
6:50 AM54 °FClear.2 mph88%30.27 "Hg10 mi
6:20 AM52 °FClear.3 mph94%30.27 "Hg10 mi
5:50 AM52 °FClear.3 mph94%30.24 "Hg10 mi
5:20 AM54 °FCool.3 mph94%30.24 "HgN/A
Weather by CustomWeather, © 2016

See weather overviewHow to use our weather pages